sat.trackr.live / text

‹ back to catalog

KUIPER-00165

NORAD 65778 · 2025-217S

PAYLOAD ACTIVE UNKNOWN

§ Identity

Operator
Country
US
Launch date
2025-09-25
Launch site
AFETR
Launch vehicle
Mass (kg)
RCS (m²)

External: N2YO · Heavens-Above · Gunter

§ Orbital elements

Epoch: 2026-05-25T04:03:14.010624Z

Period
97.30 min
Inclination
51.9027°
Eccentricity
0.0001042
Mean motion
14.79939048 rev/d
Perigee alt
628.8 km
Apogee alt
630.2 km
Semi-major
7,007.7 km
B*
2.3402e-4
RAAN
57.4095°
Arg perigee
95.8272°
Mean anomaly
264.2809°
Rev number
3,630

§ Raw data

KUIPER-001651 65778U 25217S   26145.16891216  .00001563  00000+0  23402-3 0  99902 65778  51.9027  57.4095 0001042  95.8272 264.2809 14.79939048 36306

JSON: /api/v1/satellites/65778 · /tle

For live sub-satellite position, see the globe view (requires WebGL).

§ Visibility from observer

Set your observer location to see the next 7 days of passes ≥ 10°. The values pass through the URL so the page stays shareable.

No JS? Fill the form by hand. The geolocation button needs JavaScript.